Glenwood, MN

12:37 PM CDT on August 26, 2016 (GMT -0500)
Glenwood Municipal

Weather History for KGHW - November, 2011

Change the Weather History Date:

Saturday, November 12, 2011

  Actual Average Record
Temperature  
Mean Temperature 45 °F -  
Max Temperature 62 °F 38 °F 62 °F (2011)
Min Temperature 28 °F 21 °F -4 °F (1966)
Degree Days  
Heating Degree Days 20    
Moisture  
Dew Point 20 °F    
Average Humidity 44    
Maximum Humidity 69    
Minimum Humidity 16    
Precipitation  
Precipitation 0.00 in - - ()
Sea Level Pressure  
Sea Level Pressure 29.37 in    
Wind  
Wind Speed 8 mph (SSE)    
Max Wind Speed 18 mph    
Max Gust Speed 26 mph    
Visibility 10 miles    
Events      
Averages and records for this station are not official NWS values.
T = Trace of Precipitation, MM = Missing Value Source: NWS Daily Summary

Daily Weather History Graph

Daily Weather History Graph

Search for Another Location

Airport or City:

Trip Planner

Search our weather history database for the weather conditions in past years. The results will help you decide how hot, cold, wet, or windy it might be!

Date:

Astronomy

Nov. 12, 2011 Rise Set
Actual Time 7:16 AM CST 4:54 PM CST
Civil Twilight 6:44 AM CST 5:25 PM CST
Nautical Twilight 6:08 AM CST 6:01 PM CST
Astronomical Twilight 5:33 AM CST 6:36 PM CST
Moon 6:04 PM CST (11/12) 9:05 AM CST (11/12)
Length of Visible Light 10h 41m
Length of Day
9h 37m
Full, 97% of the Moon is Illuminated
Nov 12
Full
Nov 18
Last Quarter
Nov 25
New
Dec 2
First Quarter
Dec 10
Full

Hourly Weather History & Observations

Time (CST) Temp. Windchill Dew Point Humidity Pressure Visibility Wind Dir Wind Speed Gust Speed Precip Events Conditions
12:13 AM 35.6 °F 31.7 °F 21.2 °F 56% 29.52 in 10.0 mi SSW 4.6 mph - N/A   Clear
12:34 AM 33.8 °F 27.7 °F 21.2 °F 60% 29.53 in 10.0 mi South 6.9 mph - N/A   Clear
12:53 AM 33.8 °F 29.6 °F 21.2 °F 60% 29.52 in 10.0 mi South 4.6 mph - N/A   Clear
1:14 AM 30.2 °F 24.3 °F 21.2 °F 69% 29.53 in 10.0 mi SSW 5.8 mph - N/A   Clear
1:34 AM 30.2 °F 23.4 °F 21.2 °F 69% 29.52 in 10.0 mi South 6.9 mph - N/A   Clear
1:53 AM 30.2 °F 24.3 °F 19.4 °F 64% 29.52 in 10.0 mi SSW 5.8 mph - N/A   Clear
2:13 AM 32.0 °F 27.5 °F 21.2 °F 64% 29.52 in 10.0 mi South 4.6 mph - N/A   Clear
2:33 AM 30.2 °F 24.3 °F 21.2 °F 69% 29.52 in 10.0 mi South 5.8 mph - N/A   Clear
2:53 AM 32.0 °F 27.5 °F 21.2 °F 64% 29.51 in 10.0 mi SSE 4.6 mph - N/A   Clear
3:13 AM 33.8 °F 29.6 °F 21.2 °F 60% 29.50 in 10.0 mi SSE 4.6 mph - N/A   Clear
3:33 AM 33.8 °F 28.6 °F 21.2 °F 60% 29.49 in 10.0 mi SSE 5.8 mph - N/A   Clear
3:53 AM 30.2 °F 25.4 °F 21.2 °F 69% 29.49 in 10.0 mi SSE 4.6 mph - N/A   Clear
4:13 AM 33.8 °F - 21.2 °F 60% 29.49 in 10.0 mi Calm Calm - N/A   Clear
4:33 AM 33.8 °F 29.6 °F 21.2 °F 60% 29.48 in 10.0 mi SE 4.6 mph - N/A   Clear
4:53 AM 30.2 °F 25.4 °F 21.2 °F 69% 29.48 in 10.0 mi SE 4.6 mph - N/A   Clear
5:13 AM 30.2 °F 22.6 °F 19.4 °F 64% 29.48 in 10.0 mi SSE 8.1 mph - N/A   Clear
5:34 AM 28.4 °F 22.2 °F 19.4 °F 69% 29.47 in 10.0 mi SE 5.8 mph - N/A   Clear
5:53 AM 28.4 °F 21.2 °F 19.4 °F 69% 29.46 in 10.0 mi SSE 6.9 mph - N/A   Clear
6:13 AM 28.4 °F 21.2 °F 19.4 °F 69% 29.46 in 10.0 mi SE 6.9 mph - N/A   Clear
6:34 AM 30.2 °F 23.4 °F 19.4 °F 64% 29.45 in 10.0 mi SE 6.9 mph - N/A   Clear
7:13 AM 30.2 °F 24.3 °F 19.4 °F 64% 29.44 in 10.0 mi SSE 5.8 mph - N/A   Clear
7:34 AM 30.2 °F 23.4 °F 19.4 °F 64% 29.44 in 10.0 mi SSE 6.9 mph - N/A   Clear
7:53 AM 30.2 °F 24.3 °F 19.4 °F 64% 29.43 in 10.0 mi SE 5.8 mph - N/A   Clear
8:13 AM 30.2 °F 24.3 °F 21.2 °F 69% 29.43 in 10.0 mi SSE 5.8 mph - N/A   Clear
8:34 AM 33.8 °F - 21.2 °F 60% 29.43 in 10.0 mi Calm Calm - N/A   Clear
9:14 AM 39.2 °F 37.0 °F 23.0 °F 52% 29.43 in 10.0 mi SSW 3.5 mph - N/A   Clear
9:34 AM 44.6 °F 39.7 °F 19.4 °F 37% 29.42 in 10.0 mi South 9.2 mph - N/A   Clear
9:53 AM 46.4 °F 41.9 °F 17.6 °F 32% 29.42 in 10.0 mi South 9.2 mph - N/A   Clear
10:13 AM 48.2 °F - 17.6 °F 30% 29.41 in 10.0 mi South 9.2 mph - N/A   Clear
10:33 AM 46.4 °F 42.4 °F 17.6 °F 32% 29.40 in 10.0 mi SSE 8.1 mph - N/A   Clear
10:54 AM 48.2 °F - 17.6 °F 30% 29.40 in 10.0 mi SSE 10.4 mph - N/A   Clear
11:14 AM 51.8 °F - 15.8 °F 24% 29.39 in 10.0 mi South 10.4 mph - N/A   Clear
11:34 AM 55.4 °F - 15.8 °F 21% 29.38 in 10.0 mi SSE 12.7 mph - N/A   Clear
11:54 AM 53.6 °F - 15.8 °F 22% 29.39 in 10.0 mi South 17.3 mph - N/A   Clear
12:13 PM 55.4 °F - 15.8 °F 21% 29.37 in 10.0 mi South 10.4 mph - N/A   Clear
12:34 PM 57.2 °F - 17.6 °F 21% 29.35 in 10.0 mi SSE 13.8 mph - N/A   Clear
12:53 PM 59.0 °F - 15.8 °F 19% 29.34 in 10.0 mi South 15.0 mph - N/A   Clear
1:14 PM 57.2 °F - 17.6 °F 21% 29.33 in 10.0 mi SSE 11.5 mph - N/A   Clear
1:34 PM 57.2 °F - 17.6 °F 21% 29.31 in 10.0 mi SSE 10.4 mph - N/A   Clear
1:54 PM 62.6 °F - 15.8 °F 16% 29.30 in 10.0 mi SSE 13.8 mph 19.6 mph N/A   Clear
2:13 PM 60.8 °F - 14.0 °F 16% 29.29 in 10.0 mi SSE 13.8 mph 26.5 mph N/A   Clear
2:34 PM 60.8 °F - 15.8 °F 17% 29.27 in 10.0 mi SSE 16.1 mph 19.6 mph N/A   Clear
2:53 PM 59.0 °F - 15.8 °F 19% 29.27 in 10.0 mi SSE 18.4 mph - N/A   Clear
3:14 PM 57.2 °F - 15.8 °F 20% 29.26 in 10.0 mi SSE 15.0 mph - N/A   Clear
3:34 PM 57.2 °F - 17.6 °F 21% 29.27 in 10.0 mi South 12.7 mph - N/A   Clear
3:53 PM 57.2 °F - 17.6 °F 21% 29.25 in 10.0 mi South 16.1 mph - N/A   Clear
4:14 PM 55.4 °F - 19.4 °F 25% 29.25 in 10.0 mi South 11.5 mph - N/A   Clear
4:34 PM 55.4 °F - 19.4 °F 25% 29.25 in 10.0 mi South 12.7 mph 18.4 mph N/A   Clear
4:54 PM 53.6 °F - 19.4 °F 26% 29.23 in 10.0 mi SSE 13.8 mph - N/A   Clear
5:13 PM 51.8 °F - 21.2 °F 30% 29.23 in 10.0 mi SSE 15.0 mph - N/A   Clear
5:34 PM 51.8 °F - 21.2 °F 30% 29.23 in 10.0 mi SSE 12.7 mph - N/A   Clear
5:53 PM 50.0 °F - 23.0 °F 35% 29.22 in 10.0 mi SSE 10.4 mph - N/A   Clear
6:14 PM 48.2 °F - 24.8 °F 40% 29.22 in 10.0 mi SSE 11.5 mph - N/A   Clear
6:33 PM 48.2 °F - 24.8 °F 40% 29.21 in 10.0 mi SSE 16.1 mph - N/A   Clear
6:54 PM 48.2 °F - 26.6 °F 43% 29.20 in 10.0 mi SSE 13.8 mph - N/A   Clear
7:14 PM 46.4 °F 40.4 °F 26.6 °F 46% 29.20 in 10.0 mi South 13.8 mph - N/A   Clear
7:34 PM 46.4 °F 40.1 °F 26.6 °F 46% 29.19 in 10.0 mi South 15.0 mph - N/A   Clear
7:54 PM 46.4 °F 40.4 °F 26.6 °F 46% 29.19 in 10.0 mi South 13.8 mph - N/A   Clear
8:13 PM 46.4 °F 40.4 °F 28.4 °F 50% 29.18 in 10.0 mi South 13.8 mph - N/A   Clear
8:53 PM 46.4 °F 40.1 °F 28.4 °F 50% 29.17 in 10.0 mi South 15.0 mph - N/A   Clear
9:14 PM 44.6 °F 36.9 °F 30.2 °F 57% 29.17 in 10.0 mi South 18.4 mph - N/A   Clear
9:34 PM 44.6 °F 36.9 °F 30.2 °F 57% 29.16 in 10.0 mi South 18.4 mph - N/A   Clear
9:54 PM 42.8 °F 35.4 °F 30.2 °F 61% 29.16 in 10.0 mi South 15.0 mph - N/A   Clear
10:13 PM 42.8 °F 36.2 °F 32.0 °F 66% 29.15 in 10.0 mi South 12.7 mph - N/A   Clear
10:34 PM 42.8 °F 37.0 °F 32.0 °F 66% 29.15 in 10.0 mi SSW 10.4 mph - N/A   Clear
10:53 PM 42.8 °F 37.5 °F 32.0 °F 66% 29.14 in 10.0 mi South 9.2 mph - N/A   Clear
11:13 PM 41.0 °F 39.0 °F 30.2 °F 65% 29.15 in 10.0 mi SW 3.5 mph - N/A   Clear
11:34 PM 41.0 °F 37.1 °F 30.2 °F 65% 29.15 in 10.0 mi SSW 5.8 mph - N/A   Clear
11:53 PM 41.0 °F 36.4 °F 30.2 °F 65% 29.15 in 10.0 mi SW 6.9 mph - N/A   Clear